"Pseudo-MPEC" for P21XbLK

Created 2024 Aug 31 12:22:05 UT using Find_Orb

Click here for an explanation of pseudo-MPECs

 
 Astrometry: 
     P21XbLK* C2024 08 11.31248019 41 36.732-33 20 13.66   ~8BBq 21.83wXNEOCPF52
     P21XbLK  C2024 08 11.31969019 41 37.845-33 20 24.29   ~8BBq 22.11wXNEOCPF52
     P21XbLK  C2024 08 11.32690519 41 38.961-33 20 34.99   ~8BBq 21.46wXNEOCPF52
     P21XbLK  C2024 08 11.33411819 41 40.069-33 20 45.81   ~8BBq 21.37wXNEOCPF52

Station data:
(F52) Pan-STARRS 2, Haleakala  (N20.707382 W156.255910)  US/Hawaii.
   Observers J. Bulger, T. Dukes, T. Lowe, A. Schultz, M. Willman. Measurers
   K. Chambers, S. Chastel, T. de Boer, L. Denneau, J. Fairlamb, H.
   Flewelling, M. Huber, C.-C. Lin, E. Magnier, Y. Ramanjooloo, R. Wainscoat,
   R. Weryk. 1.8-m Ritchey-Chrétien + CCD.

Orbital elements:  P21XbLK
   Perihelion 2024 Aug 21.10021 +/- 37.5 TT =  2:24:18 (JD 2460543.60021)
Epoch 2024 Aug 11.0 TT = JDT 2460533.5   Earth MOID: 0.1749      AutoNEOCP
M 356.47732289 +/- 25               (J2000 ecliptic)
n   0.34877273 +/- 0.327            Peri.  208.78466 +/- 80
a   1.99882313 +/- 1.25             Node   114.77494 +/- 39
e   0.4087812 +/- 0.248             Incl.    5.61321 +/- 7
P   2.82593                H 23.60  G  0.15   U 12.0  SR
q 1.18174173 +/- 0.36    Q 2.81590454 +/- 43.7
From 4 observations 2024 Aug. 11 (31.2 min); mean residual 0".05
Residuals in arcseconds: 
240811 F52  .00   .07-    240811 F52  .03+  .08+    
240811 F52  .01-  .06+    240811 F52  .01-  .07-    

Ephemerides (geocentric):
Date (UTC) HH   RA             Dec           delta  r     elong  mag " sig PA
---- --------  ------------   ------------  ------ ------ -----  --- --------
2024 08 31 12  20 53 24.031   -37 49 30.29  .21493 1.1864 142.1 22.0  36d 116
2024 08 31 13  20 53 33.726   -37 49 32.73  .21501 1.1864 142.1 22.0  36d 116
2024 08 31 14  20 53 43.421   -37 49 35.05  .21509 1.1865 142.1 22.0  36d 116
2024 08 31 15  20 53 53.115   -37 49 37.23  .21517 1.1865 142.1 22.0  36d 116
2024 08 31 16  20 54 02.810   -37 49 39.28  .21525 1.1866 142.1 22.0  36d 116
2024 08 31 17  20 54 12.504   -37 49 41.20  .21534 1.1866 142.1 22.0  36d 116
2024 08 31 18  20 54 22.197   -37 49 42.99  .21542 1.1866 142.1 22.0  36d 116
2024 08 31 19  20 54 31.891   -37 49 44.65  .21550 1.1867 142.1 22.0  36d 116
2024 08 31 20  20 54 41.584   -37 49 46.18  .21558 1.1867 142.0 22.0  36d 116
2024 08 31 21  20 54 51.277   -37 49 47.58  .21566 1.1867 142.0 22.0  36d 116
2024 08 31 22  20 55 00.969   -37 49 48.84  .21575 1.1868 142.0 22.0  36d 116
2024 08 31 23  20 55 10.661   -37 49 49.98  .21583 1.1868 142.0 22.0  36d 116
2024 09 01 00  20 55 20.352   -37 49 50.98  .21591 1.1869 142.0 22.0  36d 116
2024 09 01 01  20 55 30.043   -37 49 51.85  .21599 1.1869 142.0 22.0  36d 116
2024 09 01 02  20 55 39.734   -37 49 52.59  .21608 1.1869 142.0 22.0  36d 116
2024 09 01 03  20 55 49.424   -37 49 53.21  .21616 1.1870 142.0 22.0  36d 116
2024 09 01 04  20 55 59.114   -37 49 53.69  .21624 1.1870 142.0 22.0  36d 116
2024 09 01 05  20 56 08.803   -37 49 54.04  .21633 1.1871 141.9 22.0  36d 116
2024 09 01 06  20 56 18.491   -37 49 54.26  .21641 1.1871 141.9 22.0  36d 116
2024 09 01 07  20 56 28.179   -37 49 54.35  .21650 1.1871 141.9 22.0  36d 116
2024 09 01 08  20 56 37.867   -37 49 54.31  .21658 1.1872 141.9 22.0  36d 116
2024 09 01 09  20 56 47.553   -37 49 54.14  .21666 1.1872 141.9 22.0  36d 116
2024 09 01 10  20 56 57.240   -37 49 53.84  .21675 1.1873 141.9 22.0  36d 116
2024 09 01 11  20 57 06.925   -37 49 53.40  .21683 1.1873 141.9 22.0  36d 116
2024 09 01 12  20 57 16.610   -37 49 52.84  .21692 1.1873 141.9 22.0  36d 116
2024 09 01 13  20 57 26.294   -37 49 52.15  .21700 1.1874 141.9 22.0  36d 116
2024 09 01 14  20 57 35.978   -37 49 51.33  .21709 1.1874 141.8 22.0  36d 116
2024 09 01 15  20 57 45.661   -37 49 50.38  .21717 1.1875 141.8 22.0  36d 116
2024 09 01 16  20 57 55.343   -37 49 49.30  .21726 1.1875 141.8 22.0  36d 116
2024 09 01 17  20 58 05.024   -37 49 48.09  .21734 1.1875 141.8 22.0  36d 116
2024 09 01 18  20 58 14.704   -37 49 46.75  .21743 1.1876 141.8 22.0  36d 116
2024 09 01 19  20 58 24.384   -37 49 45.28  .21751 1.1876 141.8 22.0  36d 116
2024 09 01 20  20 58 34.063   -37 49 43.69  .21760 1.1877 141.8 22.0  36d 116
2024 09 01 21  20 58 43.741   -37 49 41.96  .21769 1.1877 141.8 22.0  36d 116
2024 09 01 22  20 58 53.418   -37 49 40.10  .21777 1.1878 141.8 22.0  36d 116
2024 09 01 23  20 59 03.095   -37 49 38.12  .21786 1.1878 141.7 22.0  36d 116
2024 09 02 00  20 59 12.770   -37 49 36.00  .21795 1.1878 141.7 22.0  36d 116
2024 09 02 01  20 59 22.445   -37 49 33.76  .21803 1.1879 141.7 22.0  36d 116
2024 09 02 02  20 59 32.118   -37 49 31.38  .21812 1.1879 141.7 22.0  36d 116
2024 09 02 03  20 59 41.791   -37 49 28.88  .21821 1.1880 141.7 22.0  36d 116
2024 09 02 04  20 59 51.462   -37 49 26.25  .21829 1.1880 141.7 22.0  36d 116
2024 09 02 05  21 00 01.133   -37 49 23.49  .21838 1.1881 141.7 22.0  36d 116
2024 09 02 06  21 00 10.803   -37 49 20.61  .21847 1.1881 141.7 22.0  36d 116
2024 09 02 07  21 00 20.471   -37 49 17.59  .21856 1.1881 141.7 22.0  36d 116
2024 09 02 08  21 00 30.139   -37 49 14.45  .21864 1.1882 141.7 22.0  36d 116
2024 09 02 09  21 00 39.805   -37 49 11.17  .21873 1.1882 141.6 22.0  36d 116
2024 09 02 10  21 00 49.471   -37 49 07.77  .21882 1.1883 141.6 22.0  36d 116
2024 09 02 11  21 00 59.135   -37 49 04.24  .21891 1.1883 141.6 22.0  36d 116